WML52 KHEF-KSUA

Flight info

Callsign WML52
Flight time N/A
Altitude 40000
Route GABBE3 RRSIN GSO Q83 JEVED Q97 KENLL OMN/N0404F390 TUXXI
Aircraft C525/L-SDFGRWY/S

Departure

Time 2026-04-23 00:24
Airport Manassas Regional Airport/Harry P. Davis Field (KHEF)

Arrival

Time N/A
Airport Witham Field (KSUA)
Time Latitude Longitude Altitude Speed Heading
2026-04-23 00:09 38.72109 -77.51094 180 ft 0 kts 329°
2026-04-23 00:17 38.72117 -77.51108 181 ft 4 kts 299°
2026-04-23 00:17 38.72157 -77.51171 181 ft 6 kts 294°
2026-04-23 00:18 38.72159 -77.51180 181 ft 0 kts 289°
2026-04-23 00:19 38.72160 -77.51180 181 ft 0 kts 289°
2026-04-23 00:19 38.72166 -77.51204 181 ft 3 kts 274°
2026-04-23 00:20 38.72160 -77.51228 181 ft 0 kts 239°
2026-04-23 00:20 38.72158 -77.51231 181 ft 0 kts 240°
2026-04-23 00:20 38.72155 -77.51238 181 ft 2 kts 240°
2026-04-23 00:21 38.72151 -77.51260 181 ft 0 kts 275°
2026-04-23 00:21 38.72158 -77.51276 182 ft 5 kts 314°
2026-04-23 00:21 38.72223 -77.51324 182 ft 15 kts 329°
2026-04-23 00:21 38.72341 -77.51410 184 ft 20 kts 332°
2026-04-23 00:22 38.72461 -77.51495 185 ft 18 kts 332°
2026-04-23 00:22 38.72562 -77.51569 187 ft 15 kts 329°
2026-04-23 00:22 38.72646 -77.51629 188 ft 13 kts 330°
2026-04-23 00:22 38.72733 -77.51693 190 ft 15 kts 330°
2026-04-23 00:23 38.72753 -77.51782 190 ft 13 kts 240°
2026-04-23 00:23 38.72656 -77.51798 189 ft 31 kts 152°
2026-04-23 00:23 38.72272 -77.51520 183 ft 91 kts 152°
2026-04-23 00:23 38.71584 -77.51025 281 ft 124 kts 152°
2026-04-23 00:24 38.70817 -77.50442 704 ft 129 kts 150°
2026-04-23 00:24 38.69915 -77.49990 962 ft 149 kts 179°
2026-04-23 00:24 38.68826 -77.50447 1051 ft 181 kts 223°
2026-04-23 00:24 38.68096 -77.51844 1514 ft 195 kts 246°